Location: *
(53.9002°N, 27.5624°E)
Time: 13:44:08
(UTC+00:00)

Cosmos 1633 - Pass Details

Date: 12 November 2019
Orbit: 465 x 482 km, 82.5° (Epoch: 06 December)

Event Time Altitude Azimuth Distance (km) Brightness Sun altitude
Rises 16:09:03 0° 351° (N) 2,562 6.3 -16.5°
Reaches altitude 10° 16:11:11 10° 355° (N) 1,677 5.3 -16.8°
Maximum altitude 16:14:49 58° 76° (ENE) 574 2.5 -17.3°
Enters shadow 16:18:21 10° 156° (SSE) 1,640 5.1 -17.8°
